Location: Great Falls
(47.5000°N, 111.3000°W)
Time: 13:13:25
(UTC-07:00)

Amateur Radio Satellites - All Passes

Search period start: 17 January 2018 12:43
Search period end: 18 January 2018 12:43
Location: Great Falls, 47.5000°N, 111.3000°W

Satellite Date Start Highest point End Downlink Frequencies (MHz)
Time Altitude Azimuth
AO-7 17 Jan 12:43:31 12:49:39 24° 45° (NE) 12:55:48 .
AO-85 17 Jan 12:48:36 12:51:57 26° 115° (ESE) 12:55:29 145.980
SO-50 17 Jan 12:49:32 12:52:13 15° 24° (NNE) 12:54:55 436.795
ESTCUBE 1 17 Jan 12:50:43 12:54:53 38° 292° (WNW) 12:59:00 437.505/2401.250
NANOSAT C BR1 17 Jan 12:56:48 12:59:14 15° 270° (W) 13:01:39 145.865
BEESAT 3 17 Jan 12:59:31 13:02:25 19° 325° (NW) 13:05:19 437.485
PCSat 17 Jan 13:00:40 13:05:12 26° 321° (NW) 13:09:45 145.827
VELOX 1 17 Jan 13:07:36 13:11:53 49° 100° (E) 13:16:08 145.980
LO-87 17 Jan 13:13:28 13:15:12 13° 298° (WNW) 13:16:55 145.935 - 145.965
Gurwin Techsat 1B 17 Jan 13:15:41 13:21:01 89° 75° (ENE) 13:26:23 435.225
BUGSAT 1 17 Jan 13:22:51 13:26:30 32° 263° (W) 13:30:14 437.445
ITAMSAT 1 17 Jan 13:24:15 13:25:48 11° 51° (NE) 13:27:20 435.822/435.867
AO-91 17 Jan 13:29:32 13:32:42 37° 262° (W) 13:35:55 145.960
UKube-1 17 Jan 13:34:43 13:36:34 12° 89° (E) 13:38:24 .
SPROUT 17 Jan 13:35:32 13:39:40 47° 289° (WNW) 13:43:48 437.525
DX 1 17 Jan 13:36:52 13:40:12 21° 93° (E) 13:43:32 434.975-435.025
BEESAT 2 17 Jan 13:37:04 13:40:23 24° 322° (NW) 13:43:44 435.950
Oscar 19 17 Jan 14:02:28 14:06:59 29° 266° (W) 14:11:31 437.125/150
M-CUBED/EXP-1 PRIME 17 Jan 14:21:32 14:23:25 13° 54° (NE) 14:25:14 437.505
MOZHAYETS 4 17 Jan 14:26:40 14:29:13 14° 88° (E) 14:31:44
AO-85 17 Jan 14:28:18 14:32:09 40° 316° (NW) 14:36:18 145.980
SO-50 17 Jan 14:29:11 14:33:45 50° 46° (NE) 14:38:22 436.795
AO-7 17 Jan 14:32:53 14:41:13 78° 67° (ENE) 14:49:38 .
50 SAT 17 Jan 14:39:51 14:42:59 76° 285° (WNW) 14:46:05 437.505
VELOX 1 17 Jan 14:44:46 14:48:00 20° 298° (WNW) 14:51:13 145.980
PCSat 17 Jan 14:49:28 14:50:37 11° 346° (NNW) 14:51:46 145.827
RS-15 17 Jan 14:52:29 15:03:24 36° 14° (NNE) 15:13:49 29.354- 29.394
ITUPSAT 1 17 Jan 14:55:41 14:58:40 16° 90° (E) 15:01:37 437.325
Gurwin Techsat 1B 17 Jan 14:59:00 15:01:42 14° 273° (W) 15:04:23 435.225
ITAMSAT 1 17 Jan 14:59:10 15:04:16 63° 71° (ENE) 15:09:24 435.822/435.867
DOVE 4 17 Jan 15:02:07 15:04:40 16° 61° (ENE) 15:07:10 437.250
UKube-1 17 Jan 15:08:46 15:13:05 74° 286° (WNW) 15:17:22 .
DX 1 17 Jan 15:12:27 15:16:34 43° 291° (WNW) 15:20:39 434.975-435.025
BEESAT 17 Jan 15:36:58 15:41:29 39° 98° (E) 15:45:56 436.000
M-CUBED/EXP-1 PRIME 17 Jan 15:52:50 15:57:15 88° 70° (ENE) 16:01:24 437.505
CUBESAT XI-V 17 Jan 15:55:22 15:59:22 28° 94° (E) 16:03:19 437.345
MOZHAYETS 4 17 Jan 16:02:14 16:06:53 71° 286° (WNW) 16:11:28
CUTE-I 17 Jan 16:07:31 16:10:30 15° 55° (NE) 16:13:30 437.470
SO-50 17 Jan 16:10:03 16:14:00 27° 245° (WSW) 16:17:58 436.795
AO-85 17 Jan 16:11:57 16:13:49 12° 340° (NNW) 16:15:44 145.980
XW-2F 17 Jan 16:18:30 16:20:07 12° 61° (ENE) 16:21:43 145.980 - 146.000
XW-2D 17 Jan 16:24:00 16:26:20 16° 63° (ENE) 16:28:39 145.860 - 145.880
KAITUO 1B 17 Jan 16:24:13 16:25:12 11° 60° (ENE) 16:26:11 145.475/437.950
AO-7 17 Jan 16:28:04 16:34:48 27° 268° (W) 16:41:37 .
ITUPSAT 1 17 Jan 16:32:09 16:36:58 68° 287° (WNW) 16:41:44 437.325
PCSat 17 Jan 16:35:38 16:36:44 11° 13° (NNE) 16:37:49 145.827
DOVE 4 17 Jan 16:37:39 16:41:57 61° 258° (WSW) 16:46:08 437.250
ITAMSAT 1 17 Jan 16:40:31 16:44:11 19° 269° (W) 16:47:52 435.822/435.867
XW-2B 17 Jan 16:40:41 16:43:39 22° 66° (ENE) 16:46:37 145.730 - 145.750
HO-68 17 Jan 16:40:55 16:46:20 24° 52° (NE) 16:51:45 435.675
NUDT-PHONESAT 17 Jan 16:40:55 16:43:08 15° 63° (ENE) 16:45:21 437.300
LilacSat-2 17 Jan 17:02:49 17:06:27 40° 71° (ENE) 17:10:06 437.200
RS-15 17 Jan 17:06:30 17:18:25 69° 46° (NE) 17:29:38 29.354- 29.394
XW-2C 17 Jan 17:09:54 17:13:35 44° 71° (ENE) 17:17:15 145.795 - 145.815
BEESAT 17 Jan 17:15:00 17:19:06 29° 296° (WNW) 17:23:12 436.000
CUBEBUG 2 17 Jan 17:28:32 17:31:23 17° 60° (ENE) 17:34:18 437.445
M-CUBED/EXP-1 PRIME 17 Jan 17:30:50 17:32:03 11° 265° (W) 17:33:14 437.505
CUBESAT XI-V 17 Jan 17:32:33 17:36:47 36° 292° (WNW) 17:40:58 437.345
MOZHAYETS 4 17 Jan 17:42:05 17:43:10 11° 305° (NW) 17:44:15
UWE-3 17 Jan 17:42:24 17:44:47 14° 58° (ENE) 17:47:12 435.000/436.395/437.385
CUTE-I 17 Jan 17:44:28 17:49:47 85° 73° (ENE) 17:55:08 437.470
AAUSAT CUBESAT 2 17 Jan 17:46:09 17:46:37 10° 57° (ENE) 17:47:05 437.432
SEEDS 17 Jan 17:49:37 17:53:00 24° 65° (ENE) 17:56:23 437.485
XW-2F 17 Jan 17:49:53 17:53:41 68° 259° (WSW) 17:57:31 145.980 - 146.000
CUTE 1.7 + AOD 2 17 Jan 17:53:58 17:57:59 41° 70° (ENE) 18:02:01 437.475
KAITUO 1B 17 Jan 17:54:49 17:58:35 78° 257° (WSW) 18:02:23 145.475/437.950
XW-2D 17 Jan 17:56:21 18:00:06 51° 260° (W) 18:03:51 145.860 - 145.880
BEESAT 3 17 Jan 17:57:06 18:00:08 21° 36° (NE) 18:03:08 437.485
KKS-1 17 Jan 17:58:30 18:02:58 74° 103° (ESE) 18:07:25 437.445
ITUPSAT 1 17 Jan 18:12:35 18:13:53 11° 307° (NW) 18:15:12 437.325
NUDT-PHONESAT 17 Jan 18:12:57 18:16:35 50° 261° (W) 18:20:15 437.300
XW-2B 17 Jan 18:14:07 18:17:38 34° 263° (W) 18:21:09 145.730 - 145.750
ZACube-1 17 Jan 18:14:10 18:16:54 16° 60° (ENE) 18:19:39 437.345
NO-84 17 Jan 18:15:30 18:17:48 20° 135° (SE) 18:20:02 435.350 FM
PCSat 17 Jan 18:17:37 18:22:09 26° 39° (NE) 18:26:40 145.827
AO-73 17 Jan 18:23:05 18:25:59 17° 61° (ENE) 18:28:56 145.935
STARS 17 Jan 18:25:12 18:29:34 57° 101° (ESE) 18:33:54 437.465
HO-68 17 Jan 18:26:05 18:33:16 86° 253° (WSW) 18:40:29 435.675
BEESAT 2 17 Jan 18:35:57 18:38:42 17° 33° (NNE) 18:41:25 435.950
LilacSat-2 17 Jan 18:38:10 18:40:53 18° 268° (W) 18:43:37 437.200
XW-2C 17 Jan 18:45:30 18:47:58 16° 269° (W) 18:50:26 145.795 - 145.815
Oscar 11 17 Jan 18:59:50 19:03:19 24° 65° (ENE) 19:06:49 .
STRAND 1 17 Jan 19:00:16 19:04:12 22° 92° (E) 19:08:08 437.568
CUBEBUG 2 17 Jan 19:03:12 19:07:29 62° 259° (W) 19:11:59 437.445
UWE-3 17 Jan 19:16:11 19:20:35 79° 259° (W) 19:25:09 435.000/436.395/437.385
AAUSAT CUBESAT 2 17 Jan 19:17:12 19:21:21 82° 76° (ENE) 19:25:30 437.432
RS-15 17 Jan 19:19:38 19:30:13 43° 251° (WSW) 19:40:20 29.354- 29.394
SEEDS 17 Jan 19:24:34 19:28:30 37° 263° (W) 19:32:27 437.485
CUTE-I 17 Jan 19:27:39 19:30:31 15° 272° (W) 19:33:24 437.470
CUTE 1.7 + AOD 2 17 Jan 19:30:40 19:33:58 22° 268° (W) 19:37:17 437.475
XW-2A 17 Jan 19:30:43 19:34:08 76° 258° (WSW) 19:37:34 145.665 - 145.685
BEESAT 3 17 Jan 19:34:08 19:38:02 63° 236° (SW) 19:41:51 437.485
AO-85 17 Jan 19:35:24 19:38:41 18° 30° (NNE) 19:42:07 145.980
KKS-1 17 Jan 19:36:26 19:38:58 15° 301° (WNW) 19:41:30 437.445
ZACube-1 17 Jan 19:48:12 19:52:36 69° 258° (WSW) 19:57:09 437.345
NO-84 17 Jan 19:51:54 19:54:46 50° 333° (NNW) 19:57:32 435.350 FM
AO-73 17 Jan 19:57:19 20:01:42 63° 259° (W) 20:06:13 145.935
PCSat 17 Jan 20:00:39 20:06:05 73° 240° (WSW) 20:11:28 145.827
STARS 17 Jan 20:02:28 20:05:30 18° 299° (WNW) 20:08:32 437.465
BEESAT 2 17 Jan 20:12:57 20:17:00 89° 203° (SSW) 20:20:58 435.950
HO-68 17 Jan 20:17:23 20:22:00 18° 273° (W) 20:26:39 435.675
Max Valier Satellite 17 Jan 20:19:55 20:22:39 19° 65° (ENE) 20:25:23 145.860
DELFI C3 17 Jan 20:28:45 20:32:20 35° 69° (ENE) 20:35:56 145.870
FO-29 17 Jan 20:29:41 20:34:53 54° 100° (E) 20:39:57 435.910
Oscar 11 17 Jan 20:35:09 20:39:14 39° 262° (W) 20:43:23 .
STRAND 1 17 Jan 20:38:42 20:43:43 56° 290° (WNW) 20:48:44 437.568
EO-88 17 Jan 20:47:01 20:50:03 25° 67° (ENE) 20:53:05 145.990 - 145.960
AAUSAT CUBESAT 2 17 Jan 20:56:45 20:57:21 10° 273° (W) 20:57:57 437.432
AO-85 17 Jan 21:15:05 21:19:56 68° 50° (NE) 21:25:06 145.980
TIGRISAT 17 Jan 21:21:56 21:25:36 22° 92° (E) 21:29:15 435.000
YUBILEINY 17 Jan 21:30:07 21:31:51 11° 67° (ENE) 21:33:35 435.215
NO-84 17 Jan 21:30:16 21:32:24 19° 353° (N) 21:34:31 435.350 FM
UNISAT 6 17 Jan 21:35:52 21:40:05 32° 95° (E) 21:44:17 437.425
ISS 17 Jan 21:39:14 21:40:37 12° 134° (SE) 21:42:02 437.550
nSIGHT-1 17 Jan 21:39:41 21:41:48 17° 137° (SE) 21:43:55 .
PCSat 17 Jan 21:46:47 21:48:30 11° 258° (WSW) 21:50:14 145.827
Max Valier Satellite 17 Jan 21:52:44 21:56:13 36° 263° (W) 21:59:43 145.860
BEESAT 2 17 Jan 21:53:13 21:54:00 10° 252° (WSW) 21:54:48 435.950
DELFI C3 17 Jan 22:04:11 22:07:10 21° 267° (W) 22:10:10 145.870
FO-29 17 Jan 22:15:34 22:19:40 23° 301° (WNW) 22:23:40 435.910
ESTCUBE 1 17 Jan 22:16:29 22:20:35 35° 67° (ENE) 22:24:42 437.505/2401.250
LO-87 17 Jan 22:17:19 22:20:36 36° 70° (ENE) 22:23:55 145.935 - 145.965
EO-88 17 Jan 22:20:29 22:23:36 26° 265° (W) 22:26:44 145.990 - 145.960
PRISM 17 Jan 22:53:16 22:57:08 41° 99° (E) 23:00:59 437.425
AO-85 17 Jan 22:56:16 23:00:02 22° 247° (WSW) 23:03:56 145.980
SPROUT 17 Jan 22:56:39 22:59:57 22° 64° (ENE) 23:03:16 437.525
TIGRISAT 17 Jan 22:57:59 23:02:30 48° 290° (WNW) 23:07:01 435.000
NO-84 17 Jan 23:07:55 23:10:15 22° 15° (NNE) 23:12:37 435.350 FM
QB50P2 17 Jan 23:11:51 23:13:42 12° 88° (E) 23:15:33 145.880/145.840
UNISAT 6 17 Jan 23:12:34 23:16:45 33° 293° (WNW) 23:20:57 437.425
ISS 17 Jan 23:13:20 23:16:34 68° 154° (SSE) 23:19:51 437.550
nSIGHT-1 17 Jan 23:14:25 23:17:36 89° 123° (ESE) 23:20:47 .
YUBILEINY 17 Jan 23:18:00 23:26:29 54° 90° (E) 23:34:57 435.215
AIST 2D 17 Jan 23:35:24 23:38:52 61° 101° (E) 23:42:17 435.315
EO-79 17 Jan 23:42:47 23:46:15 23° 93° (E) 23:49:40 145.935-145.965
DUCHIFAT 1 17 Jan 23:46:16 23:49:23 19° 92° (E) 23:52:28 145.980
LO-87 17 Jan 23:51:44 23:54:08 17° 268° (W) 23:56:34 145.935 - 145.965
ESTCUBE 1 17 Jan 23:53:29 23:57:24 28° 265° (W) 00:01:21 437.505/2401.250
VELOX 1 18 Jan 00:07:30 00:11:51 66° 73° (ENE) 00:16:13 145.980
POLYITAN 1 18 Jan 00:16:20 00:20:32 50° 100° (E) 00:24:42 437.675
PRISM 18 Jan 00:29:06 00:32:09 21° 297° (WNW) 00:35:11 437.425
SPROUT 18 Jan 00:31:35 00:35:35 41° 262° (W) 00:39:39 437.525
UKube-1 18 Jan 00:31:43 00:34:35 18° 61° (ENE) 00:37:27 .
O/OREOS (USA 219) 18 Jan 00:32:44 00:35:47 18° 101° (E) 00:38:50 437.305
Oscar 19 18 Jan 00:33:29 00:34:40 11° 85° (E) 00:35:52 437.125/150
DX 1 18 Jan 00:35:11 00:38:54 29° 65° (ENE) 00:42:38 434.975-435.025
NANOSAT C BR1 18 Jan 00:35:15 00:39:32 70° 102° (ESE) 00:43:47 145.865
NO-84 18 Jan 00:44:49 00:47:41 85° 213° (SSW) 00:50:39 435.350 FM
QB50P2 18 Jan 00:45:41 00:49:59 73° 287° (WNW) 00:54:15 145.880/145.840
ISS 18 Jan 00:50:03 00:53:12 42° 351° (N) 00:56:21 437.550
nSIGHT-1 18 Jan 00:50:59 00:54:00 38° 355° (N) 00:57:00 .
BUGSAT 1 18 Jan 01:00:46 01:04:27 28° 95° (E) 01:08:06 437.445
50 SAT 18 Jan 01:07:02 01:10:00 45° 73° (ENE) 01:13:00 437.505
AIST 2D 18 Jan 01:10:25 01:11:32 11° 299° (WNW) 01:12:39 435.315
BEESAT 18 Jan 01:13:17 01:14:03 10° 53° (NE) 01:14:47 436.000
AO-91 18 Jan 01:14:17 01:17:57 27° 96° (E) 01:21:56 145.960
YUBILEINY 18 Jan 01:15:26 01:23:35 40° 292° (WNW) 01:31:46 435.215
EO-79 18 Jan 01:18:07 01:22:07 38° 291° (WNW) 01:26:05 145.935-145.965
DUCHIFAT 1 18 Jan 01:21:10 01:25:16 46° 290° (WNW) 01:29:19 145.980
Gurwin Techsat 1B 18 Jan 01:29:00 01:33:30 27° 94° (E) 01:37:58 435.225
MOZHAYETS 4 18 Jan 01:31:12 01:34:42 21° 62° (ENE) 01:38:11
VELOX 1 18 Jan 01:46:19 01:48:44 14° 271° (W) 01:51:09 145.980
POLYITAN 1 18 Jan 01:52:52 01:55:58 20° 298° (WNW) 01:59:02 437.675
ITUPSAT 1 18 Jan 02:05:02 02:09:04 28° 64° (ENE) 02:13:07 437.325
UKube-1 18 Jan 02:05:58 02:10:12 57° 259° (W) 02:14:27 .
Oscar 19 18 Jan 02:09:39 02:14:52 77° 104° (ESE) 02:20:02 437.125/150
O/OREOS (USA 219) 18 Jan 02:10:19 02:14:45 56° 299° (WNW) 02:19:13 437.305
DX 1 18 Jan 02:11:07 02:15:00 32° 263° (W) 02:18:55 434.975-435.025
NANOSAT C BR1 18 Jan 02:12:20 02:14:42 15° 300° (WNW) 02:17:04 145.865
NO-84 18 Jan 02:23:58 02:24:24 10° 230° (SW) 02:24:51 435.350 FM
ISS 18 Jan 02:26:55 02:30:05 44° 11° (NNE) 02:33:15 437.550
nSIGHT-1 18 Jan 02:27:26 02:30:32 50° 14° (NNE) 02:33:39 .
AO-7 18 Jan 02:32:07 02:37:55 20° 88° (E) 02:43:38 .
BUGSAT 1 18 Jan 02:36:01 02:39:48 32° 293° (WNW) 02:43:33 437.445
50 SAT 18 Jan 02:41:34 02:42:00 10° 269° (W) 02:42:25 437.505
BEESAT 18 Jan 02:46:11 02:50:53 65° 71° (ENE) 02:55:38 436.000
AO-91 18 Jan 02:50:36 02:54:25 35° 291° (WNW) 02:58:36 145.960
CUBESAT XI-V 18 Jan 03:01:20 03:05:43 40° 68° (ENE) 03:10:07 437.345
MOZHAYETS 4 18 Jan 03:06:59 03:11:30 51° 260° (W) 03:16:03
Gurwin Techsat 1B 18 Jan 03:08:34 03:13:39 47° 292° (WNW) 03:18:43 435.225
ITAMSAT 1 18 Jan 03:09:44 03:13:04 17° 90° (E) 03:16:23 435.822/435.867
KKS-1 18 Jan 03:25:36 03:27:50 14° 57° (ENE) 03:30:03 437.445
ITUPSAT 1 18 Jan 03:42:14 03:46:44 40° 262° (W) 03:51:15 437.325
Oscar 19 18 Jan 03:50:09 03:53:36 18° 303° (WNW) 03:57:01 437.125/150
STARS 18 Jan 03:52:31 03:53:19 10° 55° (NE) 03:54:06 437.465
O/OREOS (USA 219) 18 Jan 03:54:28 03:55:13 10° 321° (NW) 03:55:58 437.305
ISS 18 Jan 04:03:25 04:06:39 58° 210° (SSW) 04:09:53 437.550
nSIGHT-1 18 Jan 04:03:40 04:06:42 41° 213° (SSW) 04:09:43 .
AO-7 18 Jan 04:23:25 04:31:53 84° 109° (ESE) 04:40:15 .
BEESAT 18 Jan 04:26:04 04:29:06 17° 270° (W) 04:32:10 436.000
DOVE 4 18 Jan 04:32:42 04:36:16 25° 95° (E) 04:39:56 437.250
CUBESAT XI-V 18 Jan 04:39:17 04:43:12 26° 267° (W) 04:47:08 437.345
ITAMSAT 1 18 Jan 04:47:52 04:53:04 73° 287° (WNW) 04:58:15 435.822/435.867
KKS-1 18 Jan 04:59:20 05:03:46 81° 256° (WSW) 05:08:13 437.445
M-CUBED/EXP-1 PRIME 18 Jan 05:02:46 05:05:50 29° 102° (ESE) 05:08:46 437.505
STARS 18 Jan 05:24:30 05:28:51 76° 74° (ENE) 05:33:14 437.465
XW-2D 18 Jan 05:26:49 05:28:36 13° 89° (E) 05:30:24 145.860 - 145.880
NUDT-PHONESAT 18 Jan 05:41:10 05:42:35 12° 89° (E) 05:43:58 437.300
ISS 18 Jan 05:42:06 05:42:32 10° 227° (SW) 05:42:59 437.550
XW-2B 18 Jan 05:43:31 05:46:16 19° 92° (E) 05:48:59 145.730 - 145.750
HO-68 18 Jan 05:52:07 05:56:00 15° 85° (E) 05:59:51 435.675
CUTE-I 18 Jan 05:58:33 06:03:00 26° 93° (E) 06:07:25 437.470
LilacSat-2 18 Jan 06:06:42 06:10:16 37° 98° (E) 06:13:47 437.200
DOVE 4 18 Jan 06:10:10 06:14:02 35° 291° (WNW) 06:18:04 437.250
XW-2C 18 Jan 06:13:00 06:16:36 40° 98° (E) 06:20:09 145.795 - 145.815
AO-7 18 Jan 06:17:00 06:23:47 29° 311° (NW) 06:30:34 .
STRAND 1 18 Jan 06:19:00 06:23:46 43° 67° (ENE) 06:28:35 437.568
SO-50 18 Jan 06:26:31 06:30:45 44° 120° (ESE) 06:35:05 436.795
ITAMSAT 1 18 Jan 06:29:23 06:31:39 13° 307° (NW) 06:33:55 435.822/435.867
M-CUBED/EXP-1 PRIME 18 Jan 06:37:28 06:40:06 20° 302° (WNW) 06:42:37 437.505
FO-29 18 Jan 06:44:26 06:50:38 39° 66° (ENE) 06:56:13 435.910
CUBEBUG 2 18 Jan 06:50:45 06:54:37 24° 93° (E) 06:58:28 437.445
XW-2F 18 Jan 06:52:26 06:56:11 74° 285° (WNW) 06:59:54 145.980 - 146.000
KAITUO 1B 18 Jan 06:56:14 06:59:59 86° 284° (WNW) 07:03:39 145.475/437.950
AAUSAT CUBESAT 2 18 Jan 06:59:01 06:59:12 10° 87° (E) 06:59:21 437.432
XW-2D 18 Jan 06:59:25 07:03:07 54° 287° (WNW) 07:06:46 145.860 - 145.880
UWE-3 18 Jan 07:03:07 07:06:26 19° 90° (E) 07:09:42 435.000/436.395/437.385
STARS 18 Jan 07:03:54 07:05:43 12° 272° (W) 07:07:34 437.465
SEEDS 18 Jan 07:04:51 07:08:26 27° 94° (E) 07:12:00 437.485
CUTE 1.7 + AOD 2 18 Jan 07:10:52 07:15:01 51° 100° (E) 07:19:06 437.475
NUDT-PHONESAT 18 Jan 07:13:08 07:16:46 57° 287° (WNW) 07:20:22 437.300
XW-2B 18 Jan 07:17:04 07:20:34 36° 290° (WNW) 07:24:01 145.730 - 145.750
ZACube-1 18 Jan 07:33:49 07:37:12 20° 91° (E) 07:40:32 437.345
RS-15 18 Jan 07:35:17 07:45:03 29° 102° (ESE) 07:54:41 29.354- 29.394
HO-68 18 Jan 07:37:43 07:44:55 76° 105° (ESE) 07:52:05 435.675
CUTE-I 18 Jan 07:38:10 07:43:17 49° 292° (WNW) 07:48:23 437.470
LilacSat-2 18 Jan 07:41:32 07:44:18 19° 295° (WNW) 07:47:03 437.200
FALCONSAT 3 18 Jan 07:42:23 07:44:03 13° 180° (S) 07:45:44 435.103
AO-73 18 Jan 07:42:28 07:45:58 21° 91° (E) 07:49:24 145.935
XW-2C 18 Jan 07:47:53 07:50:30 18° 296° (WNW) 07:53:05 145.795 - 145.815
STRAND 1 18 Jan 07:58:45 08:03:06 28° 266° (W) 08:07:29 437.568
SO-50 18 Jan 08:07:20 08:11:21 31° 321° (NW) 08:15:27 436.795
Oscar 11 18 Jan 08:18:56 08:22:45 29° 95° (E) 08:26:31 .
XW-2A 18 Jan 08:21:22 08:24:45 69° 102° (ESE) 08:28:05 145.665 - 145.685
TIGRISAT 18 Jan 08:23:37 08:27:19 27° 65° (ENE) 08:31:08 435.000
CUBEBUG 2 18 Jan 08:26:52 08:31:23 44° 290° (WNW) 08:35:53 437.445
FO-29 18 Jan 08:29:07 08:35:41 43° 262° (W) 08:41:33 435.910
AAUSAT CUBESAT 2 18 Jan 08:31:05 08:35:13 82° 282° (WNW) 08:39:18 437.432
UNISAT 6 18 Jan 08:37:34 08:41:40 39° 69° (ENE) 08:45:53 437.425
UWE-3 18 Jan 08:38:37 08:43:12 56° 288° (WNW) 08:47:46 435.000/436.395/437.385
SEEDS 18 Jan 08:40:27 08:44:07 30° 292° (WNW) 08:47:45 437.485
CUTE 1.7 + AOD 2 18 Jan 08:47:35 08:50:28 18° 298° (WNW) 08:53:20 437.475
O/OREOS (USA 219) 18 Jan 09:00:34 09:01:49 11° 40° (NE) 09:03:04 437.305
ZACube-1 18 Jan 09:09:18 09:13:45 50° 289° (WNW) 09:18:08 437.345
AO-73 18 Jan 09:18:01 09:22:25 47° 290° (WNW) 09:26:44 145.935
Max Valier Satellite 18 Jan 09:19:50 09:22:11 16° 91° (E) 09:24:31 145.860
YUBILEINY 18 Jan 09:24:04 09:31:44 32° 64° (ENE) 09:39:19 435.215
HO-68 18 Jan 09:26:16 09:32:01 27° 306° (NW) 09:37:45 435.675
DELFI C3 18 Jan 09:36:22 09:40:02 36° 98° (E) 09:43:40 145.870
RS-15 18 Jan 09:43:40 09:56:03 89° 129° (SE) 10:08:13 29.354- 29.394
PRISM 18 Jan 09:45:09 09:49:01 45° 70° (ENE) 09:52:55 437.425
EO-88 18 Jan 09:45:29 09:48:14 20° 93° (E) 09:50:58 145.990 - 145.960
SO-50 18 Jan 09:51:41 09:53:15 12° 344° (NNW) 09:54:50 436.795
Oscar 11 18 Jan 09:55:02 09:58:51 31° 293° (WNW) 10:02:39 .
NANOSAT C BR1 18 Jan 09:58:59 09:59:09 10° 56° (NE) 09:59:18 145.865
TIGRISAT 18 Jan 09:59:48 10:03:52 36° 264° (W) 10:08:03 435.000
QB50P2 18 Jan 10:07:18 10:09:49 15° 60° (ENE) 10:12:19 145.880/145.840
AAUSAT CUBESAT 2 18 Jan 10:09:51 10:09:56 10° 303° (WNW) 10:10:01 437.432
AIST 2D 18 Jan 10:12:14 10:15:29 35° 70° (ENE) 10:18:43 435.315
UNISAT 6 18 Jan 10:14:53 10:18:30 25° 267° (W) 10:22:14 437.425
O/OREOS (USA 219) 18 Jan 10:37:46 10:42:12 61° 61° (ENE) 10:46:38 437.305
EO-79 18 Jan 10:38:04 10:41:36 26° 65° (ENE) 10:45:09 145.935-145.965
DUCHIFAT 1 18 Jan 10:40:56 10:44:12 22° 64° (ENE) 10:47:29 145.980
PCSat 18 Jan 10:45:11 10:50:26 54° 117° (ESE) 10:55:43 145.827
Max Valier Satellite 18 Jan 10:52:40 10:56:12 42° 289° (WNW) 10:59:42 145.860
BEESAT 3 18 Jan 11:02:47 11:06:45 75° 126° (SE) 11:10:45 437.485
POLYITAN 1 18 Jan 11:11:29 11:15:37 56° 72° (ENE) 11:19:49 437.675
DELFI C3 18 Jan 11:11:34 11:14:33 21° 295° (WNW) 11:17:32 145.870
LO-87 18 Jan 11:13:49 11:17:01 28° 96° (E) 11:20:12 145.935 - 145.965
Gurwin Techsat 1B 18 Jan 11:18:08 11:19:22 11° 51° (NE) 11:20:36 435.225
EO-88 18 Jan 11:18:40 11:21:56 32° 291° (WNW) 11:25:10 145.990 - 145.960
YUBILEINY 18 Jan 11:20:35 11:29:14 67° 267° (W) 11:37:48 435.215
PRISM 18 Jan 11:21:42 11:24:31 18° 268° (W) 11:27:20 437.425
NANOSAT C BR1 18 Jan 11:29:52 11:34:04 77° 74° (ENE) 11:38:19 145.865
QB50P2 18 Jan 11:40:53 11:45:05 65° 258° (WSW) 11:49:21 145.880/145.840
ESTCUBE 1 18 Jan 11:41:44 11:46:06 46° 99° (E) 11:50:25 437.505/2401.250
BEESAT 2 18 Jan 11:43:37 11:47:32 55° 122° (ESE) 11:51:31 435.950
AIST 2D 18 Jan 11:46:21 11:48:45 17° 268° (W) 11:51:09 435.315
AO-7 18 Jan 11:47:57 11:51:14 13° 32° (NNE) 11:54:30 .
Oscar 19 18 Jan 11:51:48 11:55:57 25° 61° (ENE) 12:00:07 437.125/150
BUGSAT 1 18 Jan 11:53:23 11:56:55 29° 66° (ENE) 12:00:29 437.445
RS-15 18 Jan 11:58:38 12:10:09 43° 334° (NNW) 12:21:22 29.354- 29.394
EO-79 18 Jan 12:13:23 12:17:13 33° 263° (W) 12:21:07 145.935-145.965
SPROUT 18 Jan 12:13:44 12:17:21 26° 94° (E) 12:20:57 437.525
DUCHIFAT 1 18 Jan 12:15:39 12:19:36 41° 262° (W) 12:23:38 145.980
AO-91 18 Jan 12:15:42 12:18:30 25° 67° (ENE) 12:21:24 145.960
O/OREOS (USA 219) 18 Jan 12:18:21 12:21:07 16° 260° (W) 12:23:53 437.305
PCSat 18 Jan 12:29:16 12:34:06 32° 318° (NW) 12:38:58 145.827
